This demonstration page uses our WeatherBlox Daily Observations layout. Learn more.

Left ArrowRight Arrow

Hourly Observations for August 27, 2022

Temp ( °F °C ) Dew Point ( °F °C ) Humidity (%) Winds ( mph kmh ) Pressure ( in mb ) Visibility ( mi km ) Precip ( " mm )
12:52 am 00:52 Mostly Cloudy 74 23.3 69 20.6 85 85 S 12 19 29.90 1013 10 16 0.00 0.00
1:52 am 01:52 Mostly Clear 74 23.3 69 20.6 85 85 SSE 13 20 29.90 1012 10 16 0.00 0.00
2:52 am 02:52 Partly Cloudy 74 23.3 69 20.6 85 85 SSE 12 19 29.88 1012 10 16 0.00 0.00
3:52 am 03:52 Partly Cloudy 73 22.8 69 20.6 87 87 SSE 10 17 29.87 1012 10 16 0.00 0.00
4:52 am 04:52 Mostly Clear 73 22.8 68 20 84 84 SSE 9 15 29.86 1011 10 16 0.00 0.00
5:52 am 05:52 Mostly Clear 72 22.2 67 19.4 84 84 SSE 10 17 29.87 1011 10 16 0.00 0.00
6:52 am 06:52 Mostly Cloudy 71 21.7 67 19.4 87 87 SSE 10 17 29.88 1012 10 16 0.00 0.00
7:52 am 07:52 Mostly Cloudy 73 22.8 67 19.4 81 81 SSE 12 19 29.88 1012 10 16 0.00 0.00
8:52 am 08:52 Mostly Cloudy 74 23.3 66 18.9 76 76 SSE 9 15 29.87 1012 10 16 0.00 0.00
9:52 am 09:52 Mostly Cloudy 80 26.7 67 19.4 64 64 S 10 17 29.86 1011 10 16 0.00 0.00
10:52 am 10:52 Mostly Cloudy 81 27.2 69 20.6 67 67 S 10 17 29.85 1011 10 16 0.00 0.00
11:52 am 11:52 Cloudy 83 28.3 68 20 61 61 S 13 20 29.83 1010 10 16 0.00 0.00
12:52 pm 12:52 Cloudy 83 28.3 70 21.1 65 65 SSE 10 17 29.82 1010 10 16 0.00 0.00
1:52 pm 13:52 Cloudy 84 28.9 70 21.1 63 63 SSE 15 24 29.81 1009 10 16 0.00 0.00
2:52 pm 14:52 Cloudy 83 28.3 70 21.1 65 65 SSE 13 20 29.80 1009 10 16 0.00 0.00
3:52 pm 15:52 Cloudy 82 27.8 71 21.7 69 69 S 7 11 29.80 1009 10 16 0.00 0.00
4:52 pm 16:52 Cloudy 83 28.3 71 21.7 67 67 SE 8 13 29.76 1008 10 16 0.00 0.00
5:52 pm 17:52 Cloudy 83 28.3 71 21.7 67 67 SE 12 19 29.74 1007 10 16 0.00 0.00
6:42 pm 18:42 Cloudy with Nearby Thunderstorms 78 25.6 67 19.4 69 69 S 13 20 29.73 1007 10 16 0.01 0.25
6:52 pm 18:52 Cloudy with Nearby Thunderstorms 76 24.4 68 20 77 77 S 22 35 29.78 1009 8 13 0.02 0.51
7:05 pm 19:05 Cloudy with Thunderstorms 72 22.2 69 20.6 91 91 S 13 20 29.78 1008 2 3 0.15 3.81
7:35 pm 19:35 Cloudy with Nearby Thunderstorms 70 21.1 69 20.6 97 97 SE 7 11 29.78 1008 3 5 0.26 6.60
7:58 pm 19:58 Cloudy with Rain 70 21.1 69 20.6 97 97 SE 6 9 29.78 1008 N/A 0.01 0.25
8:18 pm 20:18 Cloudy with Light Rain 70 21.1 69 20.6 97 97 E 7 11 29.76 1008 7 11 0.06 1.52
8:52 pm 20:52 Cloudy 72 22.2 67 19.4 84 84 ESE 9 15 29.72 1006 10 16 0.06 1.52
9:52 pm 21:52 Mostly Cloudy 69 20.6 68 20 96 96 SSE 6 9 29.71 1006 10 16 0.01 0.25
10:52 pm 22:52 Mostly Cloudy 70 21.1 67 19.4 90 90 SE 9 15 29.72 1006 10 16 0.00 0.00
11:52 pm 23:52 Mostly Cloudy 71 21.7 67 19.4 87 87 S 13 20 29.71 1006 10 16 0.00 0.00

Powered by AerisWeather